{"data":{"norad_id":56288,"epoch":"2026-09-20T11:57:04.574304Z","epoch_age_seconds":108771,"freshness":"FRESH","line1":"1 56288U 23056C   26263.49796961  .00000359  00000+0  22550-4 0  9999","line2":"2 56288  43.0016 188.7302 0001145 266.4656  93.6065 15.27581187189833","mean_motion":15.27581187,"eccentricity":0.0001145,"inclination_deg":43.0016,"raan_deg":188.7302,"arg_perigee_deg":266.4656,"mean_anomaly_deg":93.6065,"bstar":2.255e-5,"rev_number":18983,"period_min":94.266675464104,"perigee_km":482.2599363359,"apogee_km":483.83114713796,"semimajor_km":6861.1825417369,"source":"CELESTRAK","updated_at":"2026-09-21T09:00:33.391562Z"}}